Volver al catálogo

COSMOS 886 DEB

ActivoUNKNOWN
NORAD 19221·DEBRIS·🇷🇺 Russia

Lanzado Dec 27, 1976 desde Baikonur Cosmodrome

Loading…

Próximos Pases (próximas 24 horas)

TLE

ActualizadoSource: Space-Track

Época: Sep 14, 2026, 08:39 UTC

1 19221U 76126CB  26257.36093281  .00000772  00000-0  86769-3 0  9996
2 19221  65.8337 227.1356 0846558 117.1227 251.8674 12.74953760577592

Sigue COSMOS 886 DEB en tiempo real con AllMySat

Download on the App Store